Akron, CO

2:24 AM MDT on June 29, 2017 (GMT -0600)
Akron-Washington County

Weather History for KAKO - August, 2012

Change the Weather History Date:

Sunday, August 12, 2012

  Actual Average Record
Temperature  
Mean Temperature 70 °F 73 °F  
Max Temperature 87 °F 87 °F 100 °F (1938)
Min Temperature 52 °F 59 °F 51 °F (1966)
Degree Days  
Heating Degree Days 0    
Month to date heating degree days 0  
Cooling Degree Days 5    
Month to date cooling degree days 137  
Growing Degree Days 20 (Base 50)    
Moisture  
Dew Point 42 °F    
Average Humidity 47    
Maximum Humidity 77    
Minimum Humidity 16    
Precipitation  
Precipitation 0.00 in 0.08 in 0.97 in (1950)
Month to date precipitation 0.11 1.06  
Year to date precipitation 6.32 12.25  
Sea Level Pressure  
Sea Level Pressure 30.06 in    
Wind  
Wind Speed 13 mph (NNW)    
Max Wind Speed 22 mph    
Max Gust Speed 28 mph    
Visibility 10 miles    
Events      
T = Trace of Precipitation, MM = Missing Value Source: NWS Daily Summary

Daily Weather History Graph

Daily Weather History Graph

Search for Another Location

Airport or City:

Trip Planner

Search our weather history database for the weather conditions in past years. The results will help you decide how hot, cold, wet, or windy it might be!

Date:

Astronomy

Aug. 12, 2012 Rise Set
Actual Time 6:01 AM MDT 7:53 PM MDT
Civil Twilight 5:32 AM MDT 8:22 PM MDT
Nautical Twilight 4:56 AM MDT 8:57 PM MDT
Astronomical Twilight 4:18 AM MDT 9:36 PM MDT
Moon 1:16 AM MDT (8/12) 4:20 PM MDT (8/12)
Length of Visible Light 14h 49m
Length of Day
13h 51m
Waning Crescent, 23% of the Moon is Illuminated
Aug 12
Waning Crescent
Aug 17
New
Aug 24
First Quarter
Aug 31
Full
Sep 8
Last Quarter

Hourly Weather History & Observations

Time (MDT) Temp. Dew Point Humidity Pressure Visibility Wind Dir Wind Speed Gust Speed Precip Events Conditions
12:53 AM 60.1 °F 51.1 °F 72% 30.00 in 10.0 mi NNW 16.1 mph - N/A   Clear
1:53 AM 59.0 °F 48.9 °F 69% 30.03 in 10.0 mi NW 12.7 mph - N/A   Clear
2:53 AM 55.9 °F 48.0 °F 75% 30.04 in 10.0 mi NW 10.4 mph - N/A   Clear
3:53 AM 57.0 °F 46.9 °F 69% 30.03 in 10.0 mi NW 11.5 mph - N/A   Clear
4:53 AM 54.0 °F 46.9 °F 77% 30.05 in 10.0 mi WNW 12.7 mph - N/A   Clear
5:53 AM 53.1 °F 46.0 °F 77% 30.08 in 10.0 mi West 13.8 mph - N/A   Clear
6:53 AM 55.0 °F 46.0 °F 72% 30.12 in 10.0 mi WNW 12.7 mph - N/A   Clear
7:53 AM 64.0 °F 46.9 °F 54% 30.11 in 10.0 mi NW 12.7 mph - N/A   Clear
8:53 AM 66.9 °F 46.9 °F 49% 30.12 in 10.0 mi WNW 12.7 mph - N/A   Clear
9:53 AM 72.0 °F 44.1 °F 37% 30.11 in 10.0 mi WNW 13.8 mph - N/A   Clear
10:53 AM 77.0 °F 43.0 °F 30% 30.09 in 10.0 mi NW 17.3 mph 20.7 mph N/A   Clear
11:53 AM 81.0 °F 36.0 °F 20% 30.08 in 10.0 mi NNW 13.8 mph 25.3 mph N/A   Clear
12:53 PM 82.9 °F 35.1 °F 18% 30.06 in 10.0 mi NNW 15.0 mph 20.7 mph N/A   Clear
1:53 PM 84.0 °F 36.0 °F 18% 30.06 in 10.0 mi North 15.0 mph 24.2 mph N/A   Clear
2:53 PM 84.9 °F 36.0 °F 17% 30.04 in 10.0 mi NNW 9.2 mph 18.4 mph N/A   Clear
3:53 PM 86.0 °F 36.0 °F 17% 30.02 in 10.0 mi North 12.7 mph 17.3 mph N/A   Clear
4:53 PM 86.0 °F 36.0 °F 17% 30.03 in 10.0 mi North 11.5 mph 23.0 mph N/A   Clear
5:53 PM 84.9 °F 36.0 °F 17% 30.02 in 10.0 mi NNE 12.7 mph - N/A   Clear
6:53 PM 82.0 °F 39.0 °F 22% 30.02 in 10.0 mi NE 10.4 mph - N/A   Clear
7:53 PM 75.0 °F 37.9 °F 26% 30.04 in 10.0 mi ENE 6.9 mph - N/A   Clear
8:53 PM 68.0 °F 37.9 °F 33% 30.08 in 10.0 mi East 10.4 mph - N/A   Clear
9:53 PM 66.9 °F 43.0 °F 42% 30.09 in 10.0 mi SE 9.2 mph - N/A   Clear
10:53 PM 66.0 °F 43.0 °F 43% 30.09 in 10.0 mi ESE 8.1 mph - N/A   Clear
11:53 PM 63.0 °F 43.0 °F 48% 30.10 in 10.0 mi SE 8.1 mph - N/A   Clear